Location: Pl�tzky
(52.0521°N, 11.8020°E)
Time: 09:35:28
(UTC+00:00)

N. Korean satellite - Pass Details

Date: 05 February 2021
Orbit: 451 x 502 km, 97.2° (Epoch: 07 March)

Event Time Altitude Azimuth Distance (km) Brightness Sun altitude
Rises 06:02:42 0° 359° (N) 2,489 10.0 -7.1°
Reaches altitude 10° 06:05:18 10° 338° (NNW) 1,604 8.8 -6.7°
Maximum altitude 06:07:29 16° 298° (WNW) 1,262 8.0 -6.4°
Drops below altitude 10° 06:09:40 10° 258° (WSW) 1,590 8.7 -6.0°
Sets 06:12:14 0° 237° (WSW) 2,457 9.8 -5.7°
